| time (UTC) | temp F | wind direction | speed knots | gust knots | rain 1hr in | rain 24hr in | rain mn in | humidity % | barometer mb |
| 20260509000215 | 63 | 146 | 0.0 | 0.0 | 0.00 | 0.00 | 0.00 | 82 | 1013.3 |
| 20260508235709 | 63 | 146 | 0.0 | 0.0 | 0.00 | 0.00 | 0.00 | 81 | 1013.3 |
| 20260508235209 | 63 | 146 | 0.0 | 0.0 | 0.00 | 0.00 | 0.00 | 82 | 1013.3 |
| 20260508234709 | 64 | 146 | 0.0 | 0.0 | 0.00 | 0.00 | 0.00 | 81 | 1013.2 |
| 20260508234209 | 64 | 146 | 0.0 | 0.0 | 0.00 | 0.00 | 0.00 | 79 | 1013.2 |
| 20260508233710 | 64 | 146 | 0.0 | 0.0 | 0.00 | 0.00 | 0.00 | 78 | 1013.2 |
| 20260508233207 | 65 | 146 | 0.0 | 0.9 | 0.00 | 0.00 | 0.00 | 78 | 1013.3 |
| 20260508232938 | 65 | 146 | 0.0 | 0.9 | 0.00 | 0.00 | 0.00 | 77 | 1013.3 |
| 20260508232204 | 65 | 146 | 0.0 | 0.0 | 0.00 | 0.00 | 0.00 | 77 | 1013.2 |
| 20260508231937 | 65 | 146 | 0.0 | 0.0 | 0.00 | 0.00 | 0.00 | 77 | 1013.2 |
| 20260508231437 | 66 | 146 | 0.0 | 0.0 | 0.00 | 0.00 | 0.00 | 76 | 1013.1 |
| 20260508230702 | 66 | 146 | 0.0 | 0.0 | 0.00 | 0.00 | 0.00 | 77 | 1013.2 |
| 20260508230202 | 66 | 146 | 0.0 | 0.0 | 0.00 | 0.00 | 0.00 | 76 | 1013.1 |
| 20260508225702 | 67 | 146 | 0.0 | 0.0 | 0.00 | 0.00 | 0.00 | 72 | 1013.2 |
| 20260508224701 | 67 | 146 | 0.0 | 0.0 | 0.00 | 0.00 | 0.00 | 72 | 1013.2 |
| 20260508224428 | 67 | 146 | 0.0 | 2.6 | 0.00 | 0.00 | 0.00 | 67 | 1013.3 |
| 20260508223655 | 67 | 146 | 0.0 | 2.6 | 0.00 | 0.00 | 0.00 | 65 | 1013.4 |
| 20260508223154 | 67 | 144 | 0.0 | 2.6 | 0.00 | 0.00 | 0.00 | 65 | 1013.3 |
| 20260508222655 | 67 | 225 | 0.0 | 2.6 | 0.00 | 0.00 | 0.00 | 66 | 1013.2 |
| 20260508222421 | 68 | 205 | 0.0 | 0.0 | 0.00 | 0.00 | 0.00 | 66 | 1013.2 |
| 20260508221650 | 68 | 205 | 0.0 | 0.9 | 0.00 | 0.00 | 0.00 | 65 | 1013.1 |
| 20260508221153 | 68 | 207 | 0.0 | 1.7 | 0.00 | 0.00 | 0.00 | 63 | 1013.2 |
| 20260508220922 | 68 | 207 | 0.0 | 3.5 | 0.00 | 0.00 | 0.00 | 62 | 1013.1 |
| 20260508220150 | 68 | 209 | 0.0 | 3.5 | 0.00 | 0.00 | 0.00 | 64 | 1013.1 |
| 20260508215652 | 68 | 190 | 0.9 | 5.2 | 0.00 | 0.00 | 0.00 | 63 | 1013.1 |
| 20260508215152 | 68 | 161 | 0.9 | 6.1 | 0.00 | 0.00 | 0.00 | 60 | 1013.2 |
| 20260508214923 | 69 | 219 | 0.9 | 6.1 | 0.00 | 0.00 | 0.00 | 61 | 1013.2 |
| 20260508213651 | 69 | 213 | 1.7 | 7.0 | 0.00 | 0.00 | 0.00 | 58 | 1013.3 |
| 20260508213420 | 69 | 217 | 1.7 | 7.0 | 0.00 | 0.00 | 0.00 | 59 | 1013.3 |
| 20260508212650 | 68 | 207 | 1.7 | 6.1 | 0.00 | 0.00 | 0.00 | 61 | 1013.2 |
| 20260508212421 | 68 | 227 | 1.7 | 6.1 | 0.00 | 0.00 | 0.00 | 59 | 1013.2 |
| 20260508211651 | 68 | 221 | 0.9 | 4.3 | 0.00 | 0.00 | 0.00 | 60 | 1013.2 |
| 20260508210647 | 69 | 199 | 1.7 | 7.8 | 0.00 | 0.00 | 0.00 | 60 | 1013.2 |
| 20260508210419 | 69 | 205 | 1.7 | 8.7 | 0.00 | 0.00 | 0.00 | 57 | 1013.2 |
| 20260508205647 | 69 | 208 | 1.7 | 8.7 | 0.00 | 0.00 | 0.00 | 60 | 1013.2 |
| 20260508205147 | 69 | 195 | 0.9 | 5.2 | 0.00 | 0.00 | 0.00 | 57 | 1013.2 |
| 20260508204916 | 69 | 194 | 1.7 | 5.2 | 0.00 | 0.00 | 0.00 | 57 | 1013.2 |
| 20260508204416 | 69 | 199 | 2.6 | 7.8 | 0.00 | 0.00 | 0.00 | 57 | 1013.2 |
| 20260508203416 | 69 | 223 | 2.6 | 7.0 | 0.00 | 0.00 | 0.00 | 57 | 1013.5 |
| 20260508202646 | 69 | 221 | 1.7 | 7.0 | 0.00 | 0.00 | 0.00 | 59 | 1013.5 |
| 20260508202146 | 69 | 224 | 0.9 | 5.2 | 0.00 | 0.00 | 0.00 | 60 | 1013.6 |
| 20260508201647 | 69 | 94 | 0.0 | 3.5 | 0.00 | 0.00 | 0.00 | 59 | 1013.6 |
| 20260508201144 | 69 | 97 | 0.0 | 4.3 | 0.00 | 0.00 | 0.00 | 59 | 1013.6 |
| 20260508200917 | 69 | 182 | 0.9 | 6.1 | 0.00 | 0.00 | 0.00 | 57 | 1013.6 |
| 20260508200139 | 69 | 202 | 0.9 | 6.1 | 0.00 | 0.00 | 0.00 | 55 | 1013.7 |
| 20260508195640 | 69 | 169 | 0.9 | 4.3 | 0.00 | 0.00 | 0.00 | 59 | 1013.7 |
| 20260508195411 | 69 | 230 | 0.9 | 4.3 | 0.00 | 0.00 | 0.00 | 56 | 1013.9 |
| 20260508194640 | 68 | 151 | 0.9 | 5.2 | 0.00 | 0.00 | 0.00 | 58 | 1014.0 |
| 20260508194139 | 68 | 202 | 0.9 | 6.1 | 0.00 | 0.00 | 0.00 | 60 | 1014.2 |
| 20260508193638 | 68 | 157 | 0.9 | 6.1 | 0.00 | 0.00 | 0.00 | 56 | 1014.2 |
| 20260508193138 | 69 | 159 | 0.0 | 3.5 | 0.00 | 0.00 | 0.00 | 55 | 1014.3 |
| 20260508192630 | 69 | 211 | 0.0 | 3.5 | 0.00 | 0.00 | 0.00 | 54 | 1014.2 |
| 20260508192124 | 68 | 232 | 0.0 | 4.3 | 0.00 | 0.00 | 0.00 | 55 | 1014.4 |
| 20260508191618 | 68 | 94 | 0.9 | 4.3 | 0.00 | 0.00 | 0.00 | 56 | 1014.5 |
| 20260508191343 | 68 | 88 | 1.7 | 6.1 | 0.00 | 0.00 | 0.00 | 58 | 1014.7 |
| 20260508190605 | 69 | 220 | 1.7 | 6.1 | 0.00 | 0.00 | 0.00 | 57 | 1014.7 |
| 20260508190100 | 69 | 163 | 0.9 | 5.2 | 0.00 | 0.00 | 0.00 | 59 | 1014.8 |
| 20260508185553 | 69 | 261 | 1.7 | 7.0 | 0.00 | 0.00 | 0.00 | 57 | 1014.9 |
| 20260508185048 | 69 | 194 | 1.7 | 8.7 | 0.00 | 0.00 | 0.00 | 56 | 1015.1 |
| 20260508184542 | 69 | 156 | 1.7 | 8.7 | 0.00 | 0.00 | 0.00 | 57 | 1015.1 |
| 20260508184036 | 69 | 161 | 0.9 | 6.1 | 0.00 | 0.00 | 0.00 | 57 | 1015.1 |
| 20260508183530 | 68 | 234 | 2.6 | 10.4 | 0.00 | 0.00 | 0.00 | 58 | 1015.2 |
| 20260508183025 | 68 | 215 | 2.6 | 10.4 | 0.00 | 0.00 | 0.00 | 57 | 1015.3 |
| 20260508182518 | 67 | 74 | 0.9 | 5.2 | 0.00 | 0.00 | 0.00 | 60 | 1015.3 |
| 20260508182012 | 67 | 192 | 0.9 | 7.0 | 0.00 | 0.00 | 0.00 | 59 | 1015.4 |
| 20260508181506 | 67 | 209 | 1.7 | 7.0 | 0.00 | 0.00 | 0.00 | 58 | 1015.4 |
| 20260508181232 | 67 | 217 | 1.7 | 6.1 | 0.00 | 0.00 | 0.00 | 59 | 1015.5 |
| 20260508180454 | 67 | 195 | 0.9 | 6.1 | 0.00 | 0.00 | 0.00 | 56 | 1015.3 |
| 20260508180219 | 67 | 168 | 1.7 | 7.0 | 0.00 | 0.00 | 0.00 | 56 | 1015.5 |
| 20260508175442 | 67 | 236 | 1.7 | 7.0 | 0.00 | 0.00 | 0.00 | 64 | 1015.6 |
| 20260508174935 | 68 | 204 | 1.7 | 5.2 | 0.00 | 0.00 | 0.00 | 57 | 1015.6 |
| 20260508174430 | 68 | 217 | 2.6 | 6.1 | 0.00 | 0.00 | 0.00 | 59 | 1015.8 |
| 20260508173924 | 68 | 209 | 1.7 | 6.1 | 0.00 | 0.00 | 0.00 | 58 | 1016.0 |
| 20260508173649 | 67 | 206 | 0.9 | 13.9 | 0.00 | 0.00 | 0.00 | 58 | 1015.8 |
| 20260508172911 | 67 | 196 | 0.9 | 13.9 | 0.00 | 0.00 | 0.00 | 60 | 1015.8 |
| 20260508172637 | 66 | 215 | 0.9 | 5.2 | 0.00 | 0.00 | 0.00 | 60 | 1016.0 |
| 20260508172132 | 67 | 181 | 0.9 | 5.2 | 0.00 | 0.00 | 0.00 | 57 | 1016.3 |
| 20260508171354 | 67 | 206 | 0.9 | 7.8 | 0.00 | 0.00 | 0.00 | 62 | 1016.3 |
| 20260508170848 | 67 | 215 | 0.9 | 7.8 | 0.00 | 0.00 | 0.00 | 62 | 1016.4 |
| 20260508170342 | 67 | 235 | 0.9 | 3.5 | 0.00 | 0.00 | 0.00 | 60 | 1016.5 |
| 20260508165835 | 67 | 165 | 0.0 | 3.5 | 0.00 | 0.00 | 0.00 | 63 | 1016.5 |
| 20260508165330 | 66 | 163 | 0.9 | 7.0 | 0.00 | 0.00 | 0.00 | 64 | 1016.6 |
| 20260508164823 | 65 | 160 | 0.9 | 7.0 | 0.00 | 0.00 | 0.00 | 61 | 1016.8 |
| 20260508164318 | 66 | 152 | 0.9 | 6.1 | 0.00 | 0.00 | 0.00 | 59 | 1016.9 |
| 20260508163812 | 65 | 269 | 1.7 | 6.1 | 0.00 | 0.00 | 0.00 | 62 | 1016.9 |
| 20260508163307 | 65 | 177 | 1.7 | 6.1 | 0.00 | 0.00 | 0.00 | 64 | 1017.0 |
| 20260508162759 | 65 | 215 | 0.0 | 3.5 | 0.00 | 0.00 | 0.00 | 64 | 1017.0 |
| 20260508162254 | 64 | 182 | 0.0 | 1.7 | 0.00 | 0.00 | 0.00 | 61 | 1017.1 |
| 20260508161747 | 64 | 223 | 0.0 | 1.7 | 0.00 | 0.00 | 0.00 | 62 | 1017.1 |
| 20260508161245 | 65 | 158 | 0.0 | 2.6 | 0.00 | 0.00 | 0.00 | 58 | 1017.2 |
| 20260508161016 | 65 | 154 | 0.0 | 3.5 | 0.00 | 0.00 | 0.00 | 61 | 1017.2 |
| 20260508160245 | 65 | 150 | 0.9 | 7.0 | 0.00 | 0.00 | 0.00 | 63 | 1017.3 |
| 20260508155745 | 65 | 181 | 0.9 | 7.0 | 0.00 | 0.00 | 0.00 | 59 | 1017.3 |
| 20260508155514 | 65 | 219 | 0.0 | 4.3 | 0.00 | 0.00 | 0.00 | 65 | 1017.4 |
| 20260508154743 | 65 | 176 | 0.0 | 0.0 | 0.00 | 0.00 | 0.00 | 65 | 1017.4 |
| 20260508154513 | 65 | 171 | 0.9 | 6.1 | 0.00 | 0.00 | 0.00 | 61 | 1017.4 |
| 20260508153514 | 65 | 73 | 0.9 | 5.2 | 0.00 | 0.00 | 0.00 | 60 | 1017.5 |
| 20260508152744 | 65 | 191 | 0.0 | 5.2 | 0.00 | 0.00 | 0.00 | 61 | 1017.6 |
| 20260508152244 | 65 | 242 | 0.9 | 6.1 | 0.00 | 0.00 | 0.00 | 59 | 1017.6 |
| 20260508151742 | 65 | 223 | 0.9 | 6.1 | 0.00 | 0.00 | 0.00 | 59 | 1017.6 |
| 20260508150742 | 65 | 101 | 0.0 | 0.0 | 0.00 | 0.00 | 0.00 | 67 | 1017.6 |
| 20260508150243 | 64 | 19 | 0.0 | 0.0 | 0.00 | 0.00 | 0.00 | 62 | 1017.6 |
| 20260508145739 | 64 | 19 | 0.0 | 2.6 | 0.00 | 0.00 | 0.00 | 64 | 1017.6 |
| 20260508145239 | 64 | 19 | 0.0 | 2.6 | 0.00 | 0.00 | 0.00 | 62 | 1017.5 |
| 20260508144735 | 63 | 272 | 0.0 | 4.3 | 0.00 | 0.00 | 0.00 | 68 | 1017.5 |
| 20260508144235 | 63 | 5 | 0.9 | 4.3 | 0.00 | 0.00 | 0.00 | 65 | 1017.5 |
| 20260508143734 | 62 | 219 | 0.9 | 4.3 | 0.00 | 0.00 | 0.00 | 67 | 1017.5 |
| 20260508143505 | 62 | 207 | 0.9 | 5.2 | 0.00 | 0.00 | 0.00 | 67 | 1017.6 |
| 20260508143007 | 63 | 203 | 0.9 | 5.2 | 0.00 | 0.00 | 0.00 | 67 | 1017.7 |
| 20260508142507 | 63 | 94 | 0.9 | 3.5 | 0.00 | 0.00 | 0.00 | 70 | 1017.7 |
| 20260508142005 | 63 | 25 | 0.0 | 3.5 | 0.00 | 0.00 | 0.00 | 70 | 1017.7 |
| 20260508141235 | 63 | 67 | 0.0 | 0.0 | 0.00 | 0.00 | 0.00 | 65 | 1017.8 |
| 20260508140735 | 63 | 147 | 0.0 | 0.0 | 0.00 | 0.00 | 0.00 | 68 | 1017.9 |
| 20260508140235 | 62 | 148 | 0.0 | 0.0 | 0.00 | 0.00 | 0.00 | 65 | 1017.9 |
| 20260508135736 | 62 | 190 | 0.0 | 0.0 | 0.00 | 0.00 | 0.00 | 70 | 1017.9 |
| 20260508135234 | 62 | 235 | 0.0 | 0.0 | 0.00 | 0.00 | 0.00 | 69 | 1018.0 |
| 20260508134735 | 61 | 5 | 0.0 | 0.0 | 0.00 | 0.00 | 0.00 | 73 | 1018.0 |
| 20260508134234 | 61 | 5 | 0.0 | 0.9 | 0.00 | 0.01 | 0.00 | 71 | 1018.0 |
| 20260508133735 | 61 | 5 | 0.0 | 0.9 | 0.00 | 0.01 | 0.00 | 71 | 1018.0 |
| 20260508133234 | 60 | 9 | 0.0 | 0.0 | 0.00 | 0.02 | 0.00 | 75 | 1017.9 |
| 20260508133006 | 60 | 9 | 0.0 | 0.0 | 0.00 | 0.02 | 0.00 | 76 | 1017.9 |
| 20260508132233 | 59 | 9 | 0.0 | 0.0 | 0.00 | 0.03 | 0.00 | 74 | 1017.9 |
| 20260508131727 | 59 | 32 | 0.0 | 0.0 | 0.00 | 0.03 | 0.00 | 76 | 1017.8 |
| 20260508131220 | 58 | 32 | 0.0 | 0.0 | 0.00 | 0.04 | 0.00 | 80 | 1017.7 |
| 20260508130945 | 58 | 36 | 0.0 | 0.0 | 0.00 | 0.04 | 0.00 | 86 | 1017.7 |
| 20260508130208 | 57 | 36 | 0.0 | 0.0 | 0.00 | 0.04 | 0.00 | 88 | 1017.7 |
| 20260508125158 | 55 | 36 | 0.0 | 0.0 | 0.00 | 0.06 | 0.00 | 100 | 1017.7 |
| 20260508124651 | 55 | 80 | 0.0 | 0.0 | 0.00 | 0.06 | 0.00 | 100 | 1017.7 |
| 20260508124415 | 55 | 80 | 0.0 | 0.0 | 0.00 | 0.06 | 0.00 | 100 | 1017.6 |
| 20260508123638 | 54 | 80 | 0.0 | 0.0 | 0.00 | 0.06 | 0.00 | 100 | 1017.6 |
| 20260508123133 | 53 | 80 | 0.0 | 0.0 | 0.00 | 0.06 | 0.00 | 100 | 1017.5 |
| 20260508122628 | 52 | 63 | 0.0 | 0.0 | 0.00 | 0.07 | 0.00 | 100 | 1017.4 |
| 20260508122121 | 51 | 355 | 0.0 | 0.0 | 0.00 | 0.07 | 0.00 | 100 | 1017.3 |
| 20260508121614 | 49 | 355 | 0.0 | 0.0 | 0.00 | 0.07 | 0.00 | 100 | 1017.3 |
| 20260508121108 | 47 | 355 | 0.0 | 0.0 | 0.00 | 0.07 | 0.00 | 100 | 1017.2 |
| 20260508120604 | 47 | 355 | 0.0 | 0.0 | 0.00 | 0.07 | 0.00 | 100 | 1017.2 |
| 20260508120057 | 46 | 355 | 0.0 | 0.0 | 0.00 | 0.07 | 0.00 | 100 | 1017.2 |
| 20260508115551 | 45 | 337 | 0.0 | 0.0 | 0.00 | 0.07 | 0.00 | 100 | 1017.1 |
| 20260508115045 | 45 | 337 | 0.0 | 0.0 | 0.00 | 0.08 | 0.00 | 100 | 1017.0 |
| 20260508114539 | 44 | 5 | 0.0 | 0.0 | 0.00 | 0.08 | 0.00 | 99 | 1017.0 |
| 20260508113019 | 44 | 5 | 0.0 | 0.0 | 0.00 | 0.09 | 0.00 | 99 | 1016.8 |
| 20260508112513 | 44 | 5 | 0.0 | 0.0 | 0.00 | 0.10 | 0.00 | 99 | 1016.8 |
| 20260508112007 | 44 | 5 | 0.0 | 0.0 | 0.00 | 0.11 | 0.00 | 99 | 1016.6 |
| 20260508111504 | 43 | 5 | 0.0 | 0.0 | 0.00 | 0.12 | 0.00 | 99 | 1016.5 |
| 20260508111225 | 43 | 5 | 0.0 | 0.0 | 0.00 | 0.13 | 0.00 | 99 | 1016.4 |
| 20260508110450 | 43 | 5 | 0.0 | 0.0 | 0.00 | 0.14 | 0.00 | 99 | 1016.4 |
| 20260508105943 | 43 | 5 | 0.0 | 0.0 | 0.00 | 0.15 | 0.00 | 99 | 1016.4 |
| 20260508105437 | 43 | 5 | 0.0 | 0.0 | 0.00 | 0.15 | 0.00 | 98 | 1016.3 |
| 20260508105201 | 43 | 5 | 0.0 | 0.0 | 0.00 | 0.15 | 0.00 | 98 | 1016.3 |
| 20260508104425 | 42 | 5 | 0.0 | 0.0 | 0.00 | 0.15 | 0.00 | 98 | 1016.1 |
| 20260508103413 | 43 | 5 | 0.0 | 0.0 | 0.00 | 0.15 | 0.00 | 98 | 1015.8 |
| 20260508103137 | 43 | 5 | 0.0 | 0.0 | 0.00 | 0.15 | 0.00 | 98 | 1015.8 |
| 20260508102400 | 43 | 5 | 0.0 | 0.0 | 0.00 | 0.15 | 0.00 | 98 | 1015.6 |
| 20260508101620 | 43 | 5 | 0.0 | 0.0 | 0.00 | 0.16 | 0.00 | 98 | 1015.6 |
| 20260508100844 | 43 | 5 | 0.0 | 0.0 | 0.00 | 0.17 | 0.00 | 98 | 1015.4 |
| 20260508100337 | 43 | 5 | 0.0 | 0.0 | 0.00 | 0.17 | 0.00 | 98 | 1015.3 |
| 20260508095831 | 44 | 5 | 0.0 | 0.0 | 0.00 | 0.20 | 0.00 | 98 | 1015.1 |
| 20260508095325 | 44 | 5 | 0.0 | 0.0 | 0.00 | 0.20 | 0.00 | 98 | 1015.1 |
| 20260508094819 | 44 | 5 | 0.0 | 0.0 | 0.00 | 0.20 | 0.00 | 98 | 1015.2 |
| 20260508094312 | 44 | 5 | 0.0 | 0.0 | 0.00 | 0.20 | 0.00 | 98 | 1015.2 |
| 20260508093807 | 44 | 5 | 0.0 | 0.0 | 0.00 | 0.20 | 0.00 | 98 | 1015.1 |
| 20260508093301 | 44 | 5 | 0.0 | 0.0 | 0.00 | 0.20 | 0.00 | 98 | 1015.1 |
| 20260508092250 | 44 | 5 | 0.0 | 0.0 | 0.00 | 0.20 | 0.00 | 98 | 1015.1 |
| 20260508091743 | 44 | 5 | 0.0 | 0.0 | 0.00 | 0.20 | 0.00 | 98 | 1015.1 |
| 20260508091237 | 44 | 5 | 0.0 | 0.0 | 0.00 | 0.20 | 0.00 | 98 | 1015.1 |
| 20260508090731 | 44 | 5 | 0.0 | 0.0 | 0.00 | 0.20 | 0.00 | 98 | 1015.0 |
| 20260508090225 | 44 | 5 | 0.0 | 0.0 | 0.00 | 0.20 | 0.00 | 98 | 1015.1 |
| 20260508085720 | 44 | 5 | 0.0 | 0.0 | 0.00 | 0.20 | 0.00 | 98 | 1014.9 |
| 20260508085450 | 44 | 5 | 0.0 | 0.0 | 0.00 | 0.20 | 0.00 | 98 | 1014.9 |
| 20260508084721 | 44 | 5 | 0.0 | 0.0 | 0.00 | 0.20 | 0.00 | 98 | 1014.9 |
| 20260508084218 | 44 | 5 | 0.0 | 0.0 | 0.00 | 0.20 | 0.00 | 97 | 1014.9 |
| 20260508083948 | 44 | 5 | 0.0 | 0.0 | 0.00 | 0.20 | 0.00 | 98 | 1014.8 |
| 20260508082715 | 44 | 5 | 0.0 | 0.0 | 0.00 | 0.20 | 0.00 | 97 | 1014.7 |
| 20260508082220 | 44 | 5 | 0.0 | 0.0 | 0.00 | 0.20 | 0.00 | 97 | 1014.8 |
| 20260508081717 | 45 | 5 | 0.0 | 0.0 | 0.00 | 0.20 | 0.00 | 97 | 1014.6 |
| 20260508081214 | 45 | 5 | 0.0 | 0.0 | 0.00 | 0.20 | 0.00 | 97 | 1014.7 |
| 20260508080944 | 45 | 5 | 0.0 | 0.0 | 0.00 | 0.20 | 0.00 | 97 | 1014.6 |
| 20260508080213 | 45 | 5 | 0.0 | 0.0 | 0.00 | 0.21 | 0.00 | 97 | 1014.5 |
| 20260508075713 | 45 | 5 | 0.0 | 0.0 | 0.00 | 0.21 | 0.00 | 97 | 1014.5 |
| 20260508075214 | 46 | 5 | 0.0 | 0.0 | 0.00 | 0.21 | 0.00 | 97 | 1014.6 |
| 20260508074711 | 46 | 5 | 0.0 | 0.0 | 0.00 | 0.21 | 0.00 | 97 | 1014.5 |
| 20260508074210 | 46 | 5 | 0.0 | 0.0 | 0.00 | 0.21 | 0.00 | 97 | 1014.5 |
| 20260508073708 | 46 | 5 | 0.0 | 0.0 | 0.00 | 0.21 | 0.00 | 97 | 1014.4 |
| 20260508073208 | 46 | 5 | 0.0 | 0.0 | 0.00 | 0.21 | 0.00 | 97 | 1014.4 |
| 20260508072703 | 46 | 5 | 0.0 | 0.0 | 0.00 | 0.21 | 0.00 | 97 | 1014.3 |
| 20260508072434 | 46 | 5 | 0.0 | 0.0 | 0.00 | 0.21 | 0.00 | 97 | 1014.3 |
| 20260508071704 | 46 | 5 | 0.0 | 0.0 | 0.00 | 0.21 | 0.00 | 97 | 1014.2 |
| 20260508071203 | 47 | 5 | 0.0 | 0.0 | 0.00 | 0.21 | 0.00 | 97 | 1014.3 |
| 20260508070704 | 47 | 5 | 0.0 | 0.0 | 0.00 | 0.21 | 0.00 | 97 | 1014.2 |
| 20260508070203 | 47 | 5 | 0.0 | 0.0 | 0.00 | 0.21 | 0.00 | 97 | 1014.2 |
| 20260508065703 | 47 | 5 | 0.0 | 0.0 | 0.00 | 0.21 | 0.00 | 97 | 1014.1 |
| 20260508065204 | 47 | 5 | 0.0 | 0.0 | 0.00 | 0.21 | 0.00 | 97 | 1014.1 |
| 20260508064705 | 48 | 5 | 0.0 | 0.0 | 0.00 | 0.21 | 0.00 | 97 | 1014.0 |
| 20260508064205 | 48 | 5 | 0.0 | 0.0 | 0.00 | 0.21 | 0.00 | 97 | 1014.1 |
| 20260508063705 | 48 | 5 | 0.0 | 0.0 | 0.00 | 0.21 | 0.00 | 97 | 1014.1 |
| 20260508063434 | 48 | 5 | 0.0 | 0.0 | 0.00 | 0.22 | 0.00 | 97 | 1014.1 |
| 20260508062935 | 47 | 5 | 0.0 | 0.0 | 0.00 | 0.22 | 0.00 | 97 | 1014.1 |
| 20260508062204 | 47 | 0 | 0.0 | 0.0 | 0.00 | 0.22 | 0.00 | 96 | 1014.0 |
| 20260508061705 | 47 | 0 | 0.0 | 0.0 | 0.00 | 0.22 | 0.00 | 96 | 1013.9 |
| 20260508061203 | 47 | 0 | 0.0 | 0.0 | 0.00 | 0.23 | 0.00 | 96 | 1014.0 |
| 20260508060705 | 47 | 0 | 0.0 | 0.0 | 0.00 | 0.23 | 0.00 | 96 | 1014.0 |
| 20260508060437 | 47 | 0 | 0.0 | 0.0 | 0.00 | 0.23 | 0.00 | 96 | 1014.0 |
| 20260508055700 | 48 | 0 | 0.0 | 0.0 | 0.00 | 0.25 | 0.00 | 96 | 1014.2 |
| 20260508055153 | 48 | 0 | 0.0 | 0.0 | 0.00 | 0.25 | 0.00 | 96 | 1014.0 |
| 20260508054648 | 48 | 0 | 0.0 | 0.0 | 0.00 | 0.26 | 0.00 | 96 | 1014.1 |
| 20260508054142 | 48 | 0 | 0.0 | 0.0 | 0.00 | 0.26 | 0.00 | 96 | 1014.1 |
| 20260508053636 | 48 | 0 | 0.0 | 0.0 | 0.00 | 0.26 | 0.00 | 95 | 1014.1 |
| 20260508053130 | 48 | 0 | 0.0 | 0.0 | 0.00 | 0.26 | 0.00 | 95 | 1014.0 |
| 20260508052625 | 48 | 0 | 0.0 | 0.0 | 0.00 | 0.27 | 0.00 | 96 | 1014.1 |
| 20260508052118 | 49 | 0 | 0.0 | 0.0 | 0.00 | 0.27 | 0.00 | 95 | 1014.0 |
| 20260508051612 | 49 | 0 | 0.0 | 0.0 | 0.00 | 0.27 | 0.00 | 95 | 1013.9 |
| 20260508051338 | 49 | 0 | 0.0 | 0.0 | 0.00 | 0.27 | 0.00 | 95 | 1013.9 |
| 20260508050600 | 49 | 0 | 0.0 | 0.0 | 0.00 | 0.27 | 0.00 | 95 | 1013.8 |
| 20260508050059 | 49 | 0 | 0.0 | 0.0 | 0.00 | 0.27 | 0.00 | 94 | 1013.8 |
| 20260508045555 | 49 | 0 | 0.0 | 0.0 | 0.00 | 0.28 | 0.00 | 94 | 1013.9 |
| 20260508045054 | 49 | 0 | 0.0 | 0.0 | 0.00 | 0.28 | 0.00 | 94 | 1013.9 |
| 20260508044551 | 49 | 0 | 0.0 | 0.0 | 0.00 | 0.29 | 0.00 | 93 | 1013.8 |
| 20260508044051 | 50 | 0 | 0.0 | 0.0 | 0.00 | 0.29 | 0.00 | 93 | 1013.6 |
| 20260508043551 | 50 | 0 | 0.0 | 0.0 | 0.00 | 0.29 | 0.00 | 93 | 1013.7 |
| 20260508043052 | 50 | 0 | 0.0 | 0.0 | 0.00 | 0.29 | 0.00 | 93 | 1013.7 |
| 20260508042552 | 51 | 0 | 0.0 | 0.0 | 0.00 | 0.29 | 0.00 | 92 | 1013.7 |
| 20260508042321 | 51 | 0 | 0.0 | 0.0 | 0.00 | 0.29 | 0.00 | 92 | 1013.5 |
| 20260508041549 | 51 | 0 | 0.0 | 0.0 | 0.00 | 0.29 | 0.00 | 91 | 1013.5 |
| 20260508041049 | 52 | 0 | 0.0 | 0.0 | 0.00 | 0.29 | 0.00 | 90 | 1013.5 |
| 20260508040829 | 52 | 0 | 0.0 | 0.0 | 0.00 | 0.29 | 0.00 | 89 | 1013.4 |
| 20260508040047 | 53 | 0 | 0.0 | 0.0 | 0.00 | 0.29 | 0.00 | 87 | 1013.5 |
| 20260508035546 | 53 | 0 | 0.0 | 0.0 | 0.00 | 0.29 | 0.29 | 88 | 1013.5 |
| 20260508035317 | 52 | 21 | 0.0 | 0.0 | 0.00 | 0.29 | 0.29 | 89 | 1013.6 |
| 20260508034544 | 52 | 21 | 0.0 | 0.0 | 0.00 | 0.29 | 0.29 | 89 | 1013.5 |
| 20260508034044 | 53 | 21 | 0.0 | 0.0 | 0.00 | 0.29 | 0.29 | 89 | 1013.6 |
| 20260508033542 | 53 | 21 | 0.0 | 0.0 | 0.00 | 0.29 | 0.29 | 87 | 1013.5 |
| 20260508033040 | 53 | 21 | 0.0 | 0.0 | 0.00 | 0.29 | 0.29 | 87 | 1013.5 |
| 20260508032537 | 53 | 21 | 0.0 | 0.0 | 0.00 | 0.29 | 0.29 | 87 | 1013.5 |
| 20260508032031 | 53 | 22 | 0.0 | 0.0 | 0.00 | 0.29 | 0.29 | 88 | 1013.4 |
| 20260508031525 | 54 | 22 | 0.0 | 0.0 | 0.00 | 0.29 | 0.29 | 86 | 1013.4 |
| 20260508031250 | 55 | 22 | 0.0 | 3.5 | 0.00 | 0.29 | 0.29 | 85 | 1013.3 |
| 20260508030513 | 56 | 24 | 0.0 | 3.5 | 0.00 | 0.29 | 0.29 | 83 | 1013.3 |
| 20260508030007 | 56 | 9 | 0.0 | 0.0 | 0.00 | 0.29 | 0.29 | 82 | 1013.2 |
| 20260508025733 | 56 | 9 | 0.0 | 0.0 | 0.00 | 0.29 | 0.29 | 78 | 1013.2 |
| 20260508024955 | 56 | 10 | 0.0 | 0.0 | 0.00 | 0.29 | 0.29 | 80 | 1013.2 |
| 20260508024449 | 57 | 10 | 0.0 | 0.0 | 0.00 | 0.29 | 0.29 | 79 | 1013.2 |
| 20260508023943 | 58 | 10 | 0.0 | 1.7 | 0.00 | 0.29 | 0.29 | 75 | 1013.2 |
| 20260508023708 | 59 | 10 | 0.0 | 1.7 | 0.00 | 0.29 | 0.29 | 70 | 1013.1 |
| 20260508022931 | 59 | 5 | 0.0 | 2.6 | 0.00 | 0.30 | 0.29 | 69 | 1013.0 |
| 20260508022656 | 59 | 316 | 0.0 | 2.6 | 0.00 | 0.32 | 0.29 | 70 | 1012.9 |
| 20260508021919 | 59 | 293 | 0.0 | 0.9 | 0.00 | 0.36 | 0.29 | 71 | 1013.0 |
| 20260508021420 | 58 | 295 | 0.0 | 5.2 | 0.00 | 0.38 | 0.29 | 71 | 1012.8 |
| 20260508020916 | 58 | 321 | 0.0 | 5.2 | 0.00 | 0.39 | 0.29 | 72 | 1012.7 |
| 20260508020646 | 57 | 267 | 0.0 | 0.9 | 0.00 | 0.40 | 0.29 | 76 | 1012.8 |
| 20260508015913 | 58 | 333 | 0.0 | 0.0 | 0.00 | 0.40 | 0.29 | 75 | 1012.6 |
| 20260508015413 | 58 | 333 | 0.0 | 0.0 | 0.00 | 0.40 | 0.29 | 74 | 1012.5 |
| 20260508014908 | 57 | 0 | 0.0 | 0.0 | 0.00 | 0.40 | 0.29 | 77 | 1012.5 |
| 20260508014406 | 57 | 0 | 0.0 | 0.0 | 0.00 | 0.41 | 0.29 | 75 | 1012.3 |
| 20260508013904 | 58 | 0 | 0.0 | 0.0 | 0.00 | 0.41 | 0.29 | 74 | 1012.2 |
| 20260508013401 | 59 | 0 | 0.0 | 0.0 | 0.00 | 0.41 | 0.29 | 77 | 1012.2 |
| 20260508012900 | 60 | 0 | 0.0 | 0.0 | 0.00 | 0.41 | 0.29 | 72 | 1012.1 |
| 20260508012358 | 60 | 0 | 0.0 | 1.7 | 0.00 | 0.42 | 0.29 | 70 | 1011.8 |
| 20260508011857 | 60 | 0 | 0.0 | 3.5 | 0.00 | 0.44 | 0.29 | 69 | 1011.6 |
| 20260508011357 | 60 | 9 | 0.0 | 3.5 | 0.00 | 0.44 | 0.29 | 69 | 1011.6 |
| 20260508010857 | 60 | 355 | 0.0 | 1.7 | 0.00 | 0.45 | 0.29 | 70 | 1011.5 |
| 20260508010354 | 61 | 355 | 0.0 | 1.7 | 0.00 | 0.45 | 0.29 | 69 | 1011.5 |
| 20260508005855 | 62 | 0 | 0.0 | 5.2 | 0.00 | 0.45 | 0.29 | 68 | 1011.5 |
| 20260508005353 | 62 | 10 | 0.0 | 5.2 | 0.00 | 0.49 | 0.29 | 66 | 1011.3 |
| 20260508004854 | 62 | 33 | 0.0 | 1.7 | 0.00 | 0.52 | 0.29 | 67 | 1011.2 |
| 20260508004625 | 62 | 344 | 0.9 | 9.6 | 0.00 | 0.53 | 0.29 | 64 | 1011.2 |
| 20260508003854 | 63 | 345 | 1.7 | 9.6 | 0.00 | 0.54 | 0.29 | 64 | 1010.9 |
| 20260508003356 | 63 | 5 | 1.7 | 9.6 | 0.00 | 0.54 | 0.29 | 67 | 1010.9 |
| 20260508002849 | 63 | 313 | 0.9 | 9.6 | 0.00 | 0.54 | 0.29 | 68 | 1011.0 |
| 20260508002347 | 63 | 330 | 0.0 | 4.3 | 0.00 | 0.54 | 0.29 | 69 | 1010.8 |
| 20260508002118 | 64 | 346 | 0.9 | 8.7 | 0.00 | 0.54 | 0.29 | 69 | 1010.7 |
| 20260508001348 | 64 | 342 | 1.7 | 11.3 | 0.00 | 0.56 | 0.29 | 68 | 1010.4 |
| 20260508000846 | 64 | 310 | 0.9 | 11.3 | 0.00 | 0.58 | 0.29 | 68 | 1010.4 |